• In Deutschland
  • Länderverzeichnis
  • Für 7 Tage
  • Wassertemperatur
  • Satellitenkarten
  • Wetterkarte
  • Widgets
  • user-avatar
    Anmelden

    Stündliche Wetter Gifhorn

    Heute, 22 Juli, Sonntag

    Zeit Temperatur Niederschläge Wind Luftdruck Luftfeuchtigkeit
    00:00 +20°C° 0,4 mm 1 m/S 754 mmHg 78%
    01:00 +19°C° 0 mm 2 m/S 754 mmHg 80%
    02:00 +19°C° 0,5 mm 2 m/S 754 mmHg 83%
    03:00 +18°C° 0,5 mm 2 m/S 754 mmHg 86%
    04:00 +18°C° 0,5 mm 2 m/S 754 mmHg 89%
    05:00 +19°C° 0,2 mm 2 m/S 754 mmHg 86%
    06:00 +20°C° 0,2 mm 3 m/S 754 mmHg 83%
    07:00 +21°C° 0,2 mm 3 m/S 754 mmHg 79%
    08:00 +24°C° 0,1 mm 3 m/S 754 mmHg 72%
    09:00 +25°C° 0,1 mm 3 m/S 754 mmHg 65%
    10:00 +27°C° 0,1 mm 3 m/S 754 mmHg 58%
    11:00 +28°C° 0,4 mm 3 m/S 754 mmHg 55%
    12:00 +29°C° 0,4 mm 3 m/S 754 mmHg 52%
    13:00 +29°C° 0,4 mm 3 m/S 754 mmHg 49%
    14:00 +29°C° 0,3 mm 3 m/S 754 mmHg 49%
    15:00 +29°C° 0,3 mm 3 m/S 754 mmHg 49%
    16:00 +29°C° 0,3 mm 3 m/S 754 mmHg 49%
    17:00 +28°C° 0,1 mm 3 m/S 755 mmHg 51%
    18:00 +27°C° 0,1 mm 3 m/S 755 mmHg 54%
    19:00 +26°C° 0,1 mm 3 m/S 755 mmHg 56%
    20:00 +24°C° 0 mm 3 m/S 755 mmHg 63%
    21:00 +21°C° 0 mm 3 m/S 755 mmHg 69%
    22:00 +19°C° 0 mm 3 m/S 756 mmHg 76%
    23:00 +18°C° 0 mm 2 m/S 756 mmHg 81%

    Morgen, 23 Juli, Montag

    Zeit Temperatur Niederschläge Wind Luftdruck Luftfeuchtigkeit
    00:00 +17°C° 0 mm 2 m/S 756 mmHg 85%
    01:00 +16°C° 0 mm 2 m/S 756 mmHg 90%
    02:00 +16°C° 0 mm 2 m/S 756 mmHg 91%
    03:00 +16°C° 0 mm 2 m/S 756 mmHg 93%
    04:00 +15°C° 0 mm 2 m/S 757 mmHg 94%
    05:00 +16°C° 0 mm 2 m/S 757 mmHg 88%
    06:00 +18°C° 0 mm 2 m/S 757 mmHg 83%
    07:00 +19°C° 0 mm 2 m/S 757 mmHg 77%
    08:00 +21°C° 0 mm 2 m/S 757 mmHg 69%
    09:00 +23°C° 0 mm 2 m/S 757 mmHg 61%
    10:00 +25°C° 0 mm 2 m/S 758 mmHg 53%
    11:00 +26°C° 0 mm 3 m/S 757 mmHg 50%
    12:00 +27°C° 0 mm 3 m/S 757 mmHg 46%
    13:00 +28°C° 0 mm 3 m/S 757 mmHg 43%
    14:00 +29°C° 0 mm 3 m/S 757 mmHg 42%
    15:00 +29°C° 0 mm 3 m/S 757 mmHg 42%
    16:00 +29°C° 0 mm 3 m/S 757 mmHg 42%
    17:00 +29°C° 0 mm 2 m/S 757 mmHg 46%
    18:00 +28°C° 0 mm 2 m/S 757 mmHg 51%
    19:00 +27°C° 0 mm 2 m/S 757 mmHg 55%
    20:00 +25°C° 0 mm 1 m/S 757 mmHg 61%
    21:00 +24°C° 0 mm 1 m/S 758 mmHg 67%
    22:00 +22°C° 0 mm 1 m/S 758 mmHg 73%
    23:00 +21°C° 0 mm 1 m/S 758 mmHg 76%

    übermorgen, 24 Juli, Dienstag

    Zeit Temperatur Niederschläge Wind Luftdruck Luftfeuchtigkeit
    00:00 +21°C° 0 mm 1 m/S 758 mmHg 79%
    01:00 +18°C° 0 mm 0 m/S 758 mmHg 82%
    02:00 +18°C° 0 mm 0 m/S 758 mmHg 83%
    03:00 +17°C° 0 mm 0 m/S 757 mmHg 83%
    04:00 +17°C° 0 mm 0 m/S 757 mmHg 84%
    05:00 +19°C° 0 mm 0 m/S 757 mmHg 78%
    06:00 +20°C° 0 mm 0 m/S 757 mmHg 72%
    07:00 +24°C° 0 mm 1 m/S 757 mmHg 66%
    08:00 +26°C° 0 mm 1 m/S 757 mmHg 60%
    09:00 +27°C° 0 mm 1 m/S 757 mmHg 55%
    10:00 +29°C° 0 mm 1 m/S 757 mmHg 49%
    11:00 +30°C° 0 mm 1 m/S 757 mmHg 46%
    12:00 +31°C° 0 mm 1 m/S 757 mmHg 43%
    13:00 +32°C° 0 mm 1 m/S 756 mmHg 40%
    14:00 +32°C° 0 mm 1 m/S 756 mmHg 40%
    15:00 +32°C° 0 mm 1 m/S 756 mmHg 40%
    16:00 +32°C° 0 mm 1 m/S 756 mmHg 39%
    17:00 +31°C° 0 mm 1 m/S 755 mmHg 43%
    18:00 +30°C° 0 mm 1 m/S 755 mmHg 47%
    19:00 +29°C° 0 mm 1 m/S 755 mmHg 50%
    20:00 +28°C° 0 mm 1 m/S 756 mmHg 54%
    21:00 +27°C° 0 mm 2 m/S 756 mmHg 59%
    22:00 +25°C° 0 mm 2 m/S 756 mmHg 63%
    23:00 +24°C° 0 mm 2 m/S 756 mmHg 68%

    25 Juli, Mittwoch

    Zeit Temperatur Niederschläge Wind Luftdruck Luftfeuchtigkeit
    00:00 +23°C° 0 mm 2 m/S 756 mmHg 73%
    01:00 +21°C° 0 mm 2 m/S 756 mmHg 78%
    02:00 +22°C° 0 mm 1 m/S 756 mmHg 80%
    03:00 +22°C° 0 mm 1 m/S 756 mmHg 81%
    04:00 +21°C° 0 mm 1 m/S 756 mmHg 83%
    05:00 +23°C° 0 mm 1 m/S 756 mmHg 78%
    06:00 +24°C° 0 mm 1 m/S 756 mmHg 74%
    07:00 +25°C° 0 mm 1 m/S 756 mmHg 69%
    08:00 +27°C° 0 mm 1 m/S 756 mmHg 62%
    09:00 +29°C° 0 mm 1 m/S 756 mmHg 55%
    10:00 +31°C° 0 mm 2 m/S 756 mmHg 49%
    11:00 +31°C° 0 mm 2 m/S 756 mmHg 46%
    12:00 +32°C° 0 mm 2 m/S 756 mmHg 43%
    13:00 +34°C° 0 mm 2 m/S 755 mmHg 41%
    14:00 +32°C° 0 mm 2 m/S 755 mmHg 41%
    15:00 +32°C° 0 mm 2 m/S 755 mmHg 41%
    16:00 +32°C° 0 mm 2 m/S 755 mmHg 41%
    17:00 +31°C° 0 mm 2 m/S 755 mmHg 45%
    18:00 +31°C° 0 mm 2 m/S 755 mmHg 48%
    19:00 +30°C° 0 mm 2 m/S 755 mmHg 51%
    20:00 +28°C° 0 mm 2 m/S 755 mmHg 56%
    21:00 +27°C° 0 mm 2 m/S 756 mmHg 61%
    22:00 +25°C° 0 mm 2 m/S 756 mmHg 67%
    23:00 +24°C° 0 mm 2 m/S 756 mmHg 70%

    26 Juli, Donnerstag

    Zeit Temperatur Niederschläge Wind Luftdruck Luftfeuchtigkeit
    00:00 +24°C° 0 mm 2 m/S 756 mmHg 74%
    01:00 +23°C° 0 mm 2 m/S 756 mmHg 77%
    02:00 +22°C° 0 mm 1 m/S 756 mmHg 78%
    03:00 +22°C° 0 mm 1 m/S 756 mmHg 80%
    04:00 +21°C° 0 mm 1 m/S 756 mmHg 81%
    05:00 +23°C° 0 mm 1 m/S 756 mmHg 76%
    06:00 +24°C° 0 mm 1 m/S 757 mmHg 70%
    07:00 +25°C° 0 mm 1 m/S 757 mmHg 65%
    08:00 +27°C° 0 mm 2 m/S 757 mmHg 58%
    09:00 +29°C° 0 mm 2 m/S 757 mmHg 52%
    10:00 +30°C° 0 mm 2 m/S 757 mmHg 45%
    11:00 +31°C° 0 mm 2 m/S 757 mmHg 41%
    12:00 +32°C° 0 mm 2 m/S 756 mmHg 37%
    13:00 +34°C° 0 mm 2 m/S 756 mmHg 34%
    14:00 +35°C° 0 mm 2 m/S 756 mmHg 33%
    15:00 +35°C° 0 mm 2 m/S 756 mmHg 33%
    16:00 +35°C° 0 mm 2 m/S 756 mmHg 32%
    17:00 +34°C° 0 mm 2 m/S 756 mmHg 36%
    18:00 +31°C° 0 mm 2 m/S 756 mmHg 41%
    19:00 +30°C° 0 mm 2 m/S 756 mmHg 45%
    20:00 +29°C° 0 mm 2 m/S 757 mmHg 50%
    21:00 +27°C° 0 mm 2 m/S 757 mmHg 55%
    22:00 +25°C° 0 mm 2 m/S 757 mmHg 60%
    23:00 +25°C° 0 mm 2 m/S 757 mmHg 64%

    27 Juli, Freitag

    Zeit Temperatur Niederschläge Wind Luftdruck Luftfeuchtigkeit
    00:00 +24°C° 0 mm 2 m/S 757 mmHg 67%
    01:00 +23°C° 0 mm 1 m/S 757 mmHg 71%
    02:00 +23°C° 0 mm 1 m/S 757 mmHg 73%
    03:00 +22°C° 0 mm 1 m/S 757 mmHg 76%
    04:00 +22°C° 0 mm 1 m/S 757 mmHg 78%
    05:00 +23°C° 0 mm 1 m/S 757 mmHg 74%
    06:00 +24°C° 0 mm 1 m/S 757 mmHg 69%
    07:00 +25°C° 0 mm 1 m/S 757 mmHg 65%
    08:00 +27°C° 0 mm 2 m/S 757 mmHg 57%
    09:00 +29°C° 0 mm 2 m/S 757 mmHg 50%
    10:00 +31°C° 0 mm 2 m/S 756 mmHg 43%
    11:00 +32°C° 0 mm 2 m/S 756 mmHg 41%
    12:00 +32°C° 0 mm 2 m/S 756 mmHg 38%
    13:00 +34°C° 0 mm 2 m/S 755 mmHg 36%
    14:00 +34°C° 0 mm 2 m/S 755 mmHg 37%
    15:00 +34°C° 0 mm 2 m/S 755 mmHg 38%
    16:00 +32°C° 0 mm 2 m/S 755 mmHg 39%
    17:00 +32°C° 0 mm 2 m/S 755 mmHg 42%
    18:00 +31°C° 0 mm 2 m/S 755 mmHg 46%
    19:00 +30°C° 0 mm 2 m/S 755 mmHg 49%
    20:00 +29°C° 0 mm 2 m/S 755 mmHg 54%
    21:00 +27°C° 0 mm 1 m/S 755 mmHg 59%
    22:00 +25°C° 0 mm 1 m/S 755 mmHg 65%
    23:00 +24°C° 0 mm 1 m/S 755 mmHg 68%
    Mehr zeigen